User: anonymous   Login
Location: Unspecified
(0.0000°N, 0.0000°E)
Time: 15:03:08
(UTC+00:00)
Language:

USA 227 - Orbit

View from above orbital plane
View from above orbital plane
View from above satellite
View from above satellite

Ground track
Ground track

The orbit data is extracted from the following two-line orbital elements,

1 37377U 11011A   18110.82014663 0.00000000  00000-0  00000-0 0    05
2 37377   4.5613   3.0217 0005442 191.3164 168.6838  1.00270000    01
Epoch (UTC): 20 April 2018 19:41:00
Eccentricity: 0.0005442
inclination: 4.5613°
perigee height: 35764 km
apogee height: 35809 km
right ascension of ascending node: 3.0217°
argument of perigee: 191.3164°
revolutions per day: 1.00270000
mean anomaly at epoch: 168.6838°
orbit number at epoch: 0

The dashed part of the orbit path shows where the satellite is in the earth's shadow,  

DLR